OBJECT D, 44313

Orbit data source: Space-Track

You're viewing an Uncataloged Satellite

Recently launched and/or uncataloged satellites may have evolving metadata. Metadata may include but not limited to: Owner, Maufacturer, Bus, Motor, and Mission.

OBJECT D, 44313 is a satellite owned by Changsha Tianyi (CN) in LEO that was launched on Wed, 05 Jun 2019 UTC via a CHANG ZHENG 11 launch vehicle from the Yellow Sea Launch Area, China (YSLA). Unknown objects in Earth's orbit typically refer to objects detected orbiting the Earth but have not yet been identified or cataloged. These objects could be anything from previously untracked satellites, spent rocket stages, debris from satellite collisions, or even natural meteoroids temporarily captured by Earth's gravity.

Loading next visibility...
OBJECT D details
Identifier
44313, 2019-032D
Orbit
LEO
Last TLE update10 hours ago
Origin
Flag of CNChangsha Tianyi (CN / PRC)
ManufacturerChangsha Tianyi
MissionOperational Commercial Imaging
Bus & MotorCUBESAT 6U, Unknown motor
Mass~10 kg wet, 10 kg dry
Launch date (UTC)
2019-06-05 (6 years ago)
Launch vehicle
CHANG ZHENG 11
Launch site
Yellow Sea Launch Area, China (YSLA)
Object typeUnknown
Shape & HBRBox + 2 Pan, 1 m
Radar Cross Section0.126 m², Small (<0.1 m²)

Expand to show TLE details & history

TLE from 10 hours ago
0 OBJECT D
1 44313U 19032D   24361.20553970  .00045150  00000-0  13644-2 0  9992
2 44313  44.9963  12.2545 0011161  81.4892 278.7258 15.33533694306137
Epoch: 2024-12-26T04:55Z
Definitive object data (Epoch: 2024-12-26T04:55:58.63Z)
Latitude0.00002°
Longitude-156.92805°
Altitude464.127 km
Speed7.637 km/s
True Right ascension00h 49m 01s
True Declination0° 00' 00"
Sunlit
Object was in daylight at TLE epoch
Visualization TLE readout
Latitude24.44353°
Longitude-132.24093°
Altitude460.088 km
Speed7.643 km/s
Apparent Right ascension02h 11m 05s
Apparent Declination-6° 28' 07"
Sunlit
Object is in full shadow
Visualization observer readout
Local Sidereal Time13:49:53
Azimuth350.498° N
Elevation-56.215°
Doppler factor1
Orbital elements
Apogee altitude474.533 km
Perigee altitude459.254 km
Semi-major axis6,845.03 km
Eccentricity0.0011161
Inclination44.9963°
RAAN12.2545°
Arg. of periapsis81.4892°
True anomaly278.59936°
Mean anomaly278.7258°
Eccentric anomaly278.66258°
Mean motion3.83248 °/min
BSTAR0.0013644
Orbital period93.93 mins
Loading maneuver chart data...
Loading historical data...
Loading historical data...
Loading historical data...
Loading historical data...
Loading historical data...
Loading historical data...
Loading historical data...

OBJECT D Visibility forecast

Observer location: undefined°, undefined

Span
Click to sort rows by Start time (UTC) header in descending order
Start Az.
Max El. time (UTC)
Max El. Az.
Max El.
End time (UTC)
End Az.
5 mins2024-12-27 04:37:02.853Z238.829° WSW2024-12-27 04:39:02.853Z213.785° SW42.882°2024-12-27 04:42:02.853Z69.173° E
5 mins2024-12-27 06:16:02.853Z294.457° NW2024-12-27 06:18:02.853Z355.048° N31.837°2024-12-27 06:21:02.853Z60.515° ENE
5 mins2024-12-27 07:55:02.853Z313.193° NW2024-12-27 07:57:02.853Z22.66° NE33.096°2024-12-27 08:00:02.853Z82.084° E
5 mins2024-12-27 09:33:02.853Z284.693° WNW2024-12-27 09:35:02.853Z234.212° WSW41.022°2024-12-27 09:38:02.853Z129.177° SE
|